Regional Weather Roundup
Issued by NWS Austin/San Antonio, TX

Current Version | Previous Version | Text Only | Print | Product List | Glossary On
Versions: 1 2 3 4 5 6 7 8 9 10 11 12 13 14 15 16 17 18 19 20 21 22 23 24 25 26 27 28 29 30 31 32 33 34 35 36 37 38 39 40 41 42 43 44 45 46 47 48 49 50
000
ASUS44 KEWX 040813
RWREWX
SOUTH TEXAS REGIONAL WEATHER ROUNDUP
NATIONAL WEATHER SERVICE AUSTIN/SAN ANTONIO TX
300 AM CDT TUE OCT 04 2022

NOTE: "FAIR" INDICATED FEW OR NO CLOUDS BELOW 12,000 FEET WITH NO
SIGNIFICANT WEATHER AND/OR OBSTRUCTIONS TO VISIBILITY.

* - THESE STATIONS ARE NOT NWS OR FAA STATIONS...AND ARE NOT SUBJECT
    TO NWS AND FAA QUALITY CONTROL.

TXZ171-172-183>190-040900-
TEXAS HILL COUNTRY AND EDWARDS PLATEAU

CITY           SKY/WX    TMP DP  RH WIND       PRES   REMARKS
JUNCTION       PTCLDY    56  43  61 NW3       30.13S
*LLANO         MOCLDY    55  41  58 N5        30.10F
BURNET         CLEAR     61  42  49 CALM      30.12S
*HORSESHOE BAY CLEAR     56  41  57 CALM      30.10F
*LAGO VISTA      N/A    N/A N/A N/A E3        30.10F
*KERRVILLE     MOCLDY    57  46  66 CALM      30.12S
*FREDERICKSBRG CLEAR     56  42  60 NW3       30.13R
*ROCKSPRINGS   PTCLDY    61  50  67 SE6       30.17S
*BOERNE        MOCLDY    59  45  58 CALM      30.11F
HONDO          MOCLDY    65  47  52 NE5       30.08S
*UVALDE        MOCLDY    62  50  63 CALM      30.10S
DEL RIO        PTCLDY    65  52  62 E5        30.07F
*LAUGHLIN AFB  CLOUDY    62  52  71 NE3       30.05F
*SPOFFORD      CLOUDY    64  52  66 NW5       30.06F
CARRIZO SPRGS  CLOUDY    68  50  52 CALM      30.06F
*FAITH RANCH   CLEAR     72  55  56 E6        30.08F
$$

TXZ173-191>194-202-209-217>225-228-040900-
CENTRAL AND SOUTH CENTRAL TEXAS

CITY           SKY/WX    TMP DP  RH WIND       PRES   REMARKS
GEORGETOWN     MOCLDY    57  44  62 CALM      30.10F
*TAYLOR        MOCLDY    55  42  61 CALM      30.08S
AUSTIN/BERGSTM MOCLDY    61  51  70 CALM      30.07S
AUSTIN/MABRY   MOCLDY    63  48  58 CALM      30.08F
*PFLUGERVILLE  MOCLDY    64  41  42 N5        30.07S
SAN MARCOS     MOCLDY   N/A N/A N/A NW5         N/A
NEW BRAUNFELS  MOCLDY    68  46  45 CALM      30.06F
*RANDOLPH AFB  CLOUDY    66  47  48 NW5       30.06S
*SEGUIN        CLOUDY    65  48  55 SW6       30.06R
SAN ANTONIO    MOCLDY    68  48  48 NW3       30.08S
STINSON FIELD  MOCLDY    66  51  58 SE3       30.06S
*KELLY FIELD   MOCLDY    67  49  53 CALM      30.05S
*PLEASANTON    MOCLDY    64  52  64 N3        30.08S
*KENEDY        MOCLDY    64  53  65 W3        30.08S
*LA GRANGE     NOT AVBL
*GIDDINGS      MOCLDY    64  47  53 NE6       30.08R
*GONZALES      MOCLDY    65  50  58 CALM      30.06F
$$

TXZ163>164-176>182-195>201-210>213-226-227-235-040900-
SOUTHEAST TEXAS

CITY           SKY/WX    TMP DP  RH WIND       PRES   REMARKS
COLLEGE STN    MOCLDY    70  49  47 E6        30.08S
*BRYAN         MOCLDY    65  48  55 NE3       30.10F
*CALDWELL      MOCLDY    60  50  69 CALM      30.08S
*CROCKETT      MOCLDY    57  52  82 CALM      30.09S
*BRENHAM       MOCLDY    67  50  53 CALM        N/A
HUNTSVILLE     PTCLDY    63  51  65 CALM      30.08S
CONROE         MOCLDY    61  52  72 CALM      30.08S
HOUSTON BUSH   MOCLDY    64  53  67 NE6       30.06S
HOUSTON HOBBY  MOCLDY    68  54  60 CALM      30.05S
*HOUSTON SW AP NOT AVBL
PEARLAND       MOCLDY    65  57  75 CALM      30.06F
HOUSTON HOOKS  MOCLDY    68  52  56 NE5       30.07S
ELLINGTON FLD  CLEAR     66  59  77 CALM      30.05S
SUGAR LAND     MOCLDY    64  55  72 CALM      30.05S
*HOUSTON EXEC  MOCLDY    64  54  68 CALM      30.07S
*CLEVELAND MUN NOT AVBL
*WHARTON       CLOUDY    62  58  86 CALM      30.06S
*COLUMBUS      FAIR      61  50  68 CALM      30.07S
*EAGLE LAKE    MOCLDY    62  53  72 E3        30.06S
$$

TXZ214>216-236>238-040900-
THE UPPER TEXAS COAST

CITY           SKY/WX    TMP DP  RH WIND       PRES   REMARKS
*ORANGE        PTCLDY    60  57  88 CALM      30.08S
PORT ARTHUR    PTCLDY    64  55  72 NE3       30.06S
GALVESTON      MOCLDY    71  64  78 N7        30.06S
ANGLETON       PTCLDY    61  59  93 CALM      30.04F
*BAY CITY      CLOUDY    63  60  90 CALM      30.05S
PALACIOS       CLOUDY    66  62  87 N5        30.04F
$$

TXZ229>234-239>247-040900-
TEXAS COASTAL BEND AND RIO GRANDE PLAINS

CITY           SKY/WX    TMP DP  RH WIND       PRES   REMARKS
VICTORIA       CLOUDY    66  59  78 W3        30.04F
*BEEVILLE      CLOUDY    66  58  74 CALM      30.06S
ROCKPORT       MOCLDY    71  66  84 CALM      30.04S
*PORT ARANSAS  CLOUDY   N/A N/A N/A CALM      30.06S
*PORT LAVACA   CLOUDY    69  56  63 NW3       30.05F
*INGLESIDE     MOCLDY    71  67  85 CALM      30.04S
CORPUS CHRISTI CLOUDY    73  62  68 N3        30.04F
CORPUS NAS     MOCLDY    77  71  82 N3        30.04F
*ROBSTOWN      MOCLDY    69  62  78 MISG      30.06F
ALICE          CLOUDY    69  65  86 W5        30.06S
KINGSVILLE NAS NOT AVBL
COTULLA        CLOUDY    71  55  56 S5        30.07S
LAREDO         CLOUDY    72  60  66 SE7       30.06S
$$

TXZ248>255-040900-
DEEP SOUTH TEXAS

CITY           SKY/WX    TMP DP  RH WIND       PRES   REMARKS
BROWNSVILLE    PTCLDY    72  66  81 NW3       30.02F
PORT ISABEL    PTCLDY    71  66  84 CALM      30.03F
HARLINGEN      MOCLDY    70  65  84 W5        30.03F
*HEBBRONVILLE  CLOUDY    69  63  82 CALM      30.06F
MCALLEN        CLOUDY    73  63  70 CALM      30.05F
*WESLACO       MOCLDY    71  65  81 CALM      30.05S
FALFURRIAS     LGT RAIN  70  67  92 CALM      30.04F
EDINBURG       PTCLDY    69  66  89 CALM      30.05F
*ZAPATA        PTCLDY    74  65  74 CALM      30.08S
$$

TXZ213>215-236>238-242>244-246-247-251-254-255-040900-
CMAN STATIONS

STATION/POSITION TIME  TEMP    WIND        PRES    WAVE
                       AIR SEA DIR/SP/G            HT/PER
                 (UTC) (F)     (DEG/KT/KT) (MB)    (FT/S)
SEA RIM ST PARK  0800   70      50/  8/  9 1018.0
NORTH JETTY/GLS  0736   74 78   80/  7/  8 1016.5
EAGLE POINT      0748   73 76   10/  1/  2 1017.1
MORGANS POINT    0748      78              1017.2
MISSION/ARANSAS  0700   75      50/  5     1018.0
PORT O`CONNOR    0748   72 85  250/  3/  4 1016.9
PORT ARANSAS     0800   79      80/  5/  6   N/A
BAFFIN BAY       0748   74 80  320/  5/  6 1017.7
PORT ISABEL      0748   80 82   90/  6/  9 1016.2
$$



USA.gov is the U.S. government's official web portal to all federal, state and local government web resources and services.